{"data":{"norad_id":67960,"intl_designator":"2026-037AE","name":"STARLINK-36841","alt_names":[],"object_type":"PAYLOAD","status":"ACTIVE","operator":null,"country":"US","launch_date":"2026-02-24","launch_site_code":"AFETR","launch_vehicle":null,"mission":null,"orbit_class":"UNKNOWN","rcs_meters":null,"size_class":null,"mass_kg":null,"dimensions":null,"purposes":["comms"],"wikipedia_slug":null,"has_3d_model":false,"image_url":null,"decayed_at":null,"tle_current":{"epoch":"2026-05-25T04:43:32.310336Z","epoch_age_seconds":61545,"freshness":"FRESH","line1":"1 67960U 26037AE  26145.19690174  .00019200  00000+0  70537-3 0  9997","line2":"2 67960  43.0016 118.4583 0001415 270.0900  89.9789 15.27582147 15045","mean_motion":15.27582147,"eccentricity":0.0001415,"inclination_deg":43.0016,"raan_deg":118.4583,"arg_perigee_deg":270.09,"mean_anomaly_deg":89.9789,"bstar":0.00070537,"rev_number":1504,"period_min":94.266616222767,"perigee_km":482.0718102339,"apogee_km":484.01352407971,"semimajor_km":6861.1796671568,"source":"CELESTRAK","updated_at":"2026-05-25T13:38:21.772446Z"}}}